Starlink 33730

operational
NORAD ID: 63439 Int'l Des: 2025-069 Owner: SPXS Country: US Constellation: starlink
LEOCIRCULAR

Über Starlink 33730

Beschreibung wird geladen...

Live-Position

3D-Globus wird geladen...

Nächste Überflüge

Höhenverlauf

Altitude vs Time

uPlot chart will show altitude changes over time

Zweizeiliger Elementsatz

1 63439U 25069G 25308.51516371 .00023046 00000-0 78773-3 0 9994
2 63439 53.1586 3.6434 0001135 74.6520 285.4606 15.30203213 34243
Epoch: 4. Nov. 2025 • Age: 14 hours

Aktueller Status

Höhe 493.3 km
Geschwindigkeit 7.62 km/s
Subsatellitenpunkt -50.69°S, 141.28°W
Startdatum 4. Apr. 2025
Alter 0.5 years
Typ internet

Technische Details

Klassifizierung Payload
Masse 575.00 kg
Trockenmasse 530.00 kg
Gesamtmasse 575.00 kg
Länge 0.30 m
Durchmesser 4.10 m
Spannweite 29.00 m
Form Box + pan
Hersteller SPXS
Bus-Typ Starlink V2MO
Phasenstatus In Orbit
Besitzer/Staat SPXS/US

Große Konstellationen

Loading constellations...